| time (UTC) | temp C | wind direction | speed KPH | gust KPH | rain 1hr cm | rain 24hr cm | rain mn cm | humidity % | barometer mb |
| 20260508085513 | 11 | 0.0 | 0.0 | 0.00 | 0.00 | 0.00 | 1 | 1014.8 | |
| 20260508084513 | 11 | 0.0 | 0.0 | 0.00 | 0.00 | 0.00 | 1 | 1014.8 | |
| 20260508084013 | 11 | 0.0 | 0.0 | 0.00 | 0.00 | 0.00 | 1 | 1014.8 | |
| 20260508083512 | 11 | 0.0 | 0.0 | 0.00 | 0.00 | 0.00 | 1 | 1014.8 | |
| 20260508083013 | 11 | 0.0 | 0.0 | 0.00 | 0.00 | 0.00 | 1 | 1014.7 | |
| 20260508082512 | 12 | 0.0 | 0.0 | 0.00 | 0.00 | 0.00 | 1 | 1014.7 | |
| 20260508082012 | 12 | 0.0 | 0.0 | 0.00 | 0.00 | 0.00 | 9 | 1014.8 | |
| 20260508081012 | 12 | 0.0 | 0.0 | 0.00 | 0.00 | 0.00 | 14 | 1014.7 | |
| 20260508080512 | 12 | 0.0 | 0.0 | 0.00 | 0.00 | 0.00 | 10 | 1014.7 | |
| 20260508080012 | 12 | 0.0 | 0.0 | 0.00 | 0.00 | 0.00 | 11 | 1014.7 | |
| 20260508074513 | 13 | 0.0 | 0.0 | 0.00 | 0.00 | 0.00 | 11 | 1014.8 | |
| 20260508074012 | 13 | 0.0 | 0.0 | 0.00 | 0.00 | 0.00 | 9 | 1014.7 | |
| 20260508073513 | 13 | 0.0 | 0.0 | 0.00 | 0.00 | 0.00 | 5 | 1014.6 | |
| 20260508073013 | 13 | 0.0 | 0.0 | 0.00 | 0.00 | 0.00 | 3 | 1014.6 | |
| 20260508072513 | 13 | 0.0 | 0.0 | 0.00 | 0.00 | 0.00 | 5 | 1014.6 | |
| 20260508072013 | 14 | 0.0 | 0.0 | 0.00 | 0.00 | 0.00 | 6 | 1014.6 | |
| 20260508071513 | 14 | 0.0 | 0.0 | 0.00 | 0.00 | 0.00 | 11 | 1014.6 | |
| 20260508070512 | 15 | 0.0 | 0.0 | 0.00 | 0.00 | 0.00 | 9 | 1014.6 | |
| 20260508065512 | 15 | 0.0 | 0.0 | 0.00 | 0.00 | 0.00 | 10 | 1014.5 | |
| 20260508065014 | 15 | 0.0 | 0.0 | 0.00 | 0.00 | 0.00 | 13 | 1014.5 | |
| 20260508064512 | 15 | 0.0 | 0.0 | 0.00 | 0.00 | 0.00 | 14 | 1014.4 | |
| 20260508064012 | 15 | 0.0 | 0.0 | 0.00 | 0.00 | 0.00 | 15 | 1014.4 | |
| 20260508063512 | 15 | 0.0 | 0.0 | 0.00 | 0.00 | 0.00 | 16 | 1014.3 | |
| 20260508062013 | 15 | 0.0 | 0.0 | 0.00 | 0.00 | 0.00 | 21 | 1014.2 | |
| 20260508061013 | 16 | 0.0 | 0.0 | 0.00 | 0.00 | 0.00 | 24 | 1014.1 | |
| 20260508060512 | 16 | 0.0 | 0.0 | 0.00 | 0.00 | 0.00 | 25 | 1014.0 | |
| 20260508060013 | 16 | 0.0 | 0.0 | 0.00 | 0.00 | 0.00 | 25 | 1014.0 | |
| 20260508055512 | 16 | 0.0 | 0.0 | 0.00 | 0.00 | 0.00 | 26 | 1013.9 | |
| 20260508055012 | 16 | 0.0 | 0.0 | 0.00 | 0.00 | 0.00 | 26 | 1013.8 | |
| 20260508054012 | 16 | 0.0 | 0.0 | 0.00 | 0.00 | 0.00 | 32 | 1013.7 | |
| 20260508053512 | 16 | 0.0 | 0.0 | 0.00 | 0.00 | 0.00 | 33 | 1013.7 | |
| 20260508053013 | 17 | 0.0 | 0.0 | 0.00 | 0.00 | 0.00 | 36 | 1013.7 | |
| 20260508052512 | 17 | 0.0 | 0.0 | 0.00 | 0.00 | 0.00 | 36 | 1013.5 | |
| 20260508051512 | 17 | 0.0 | 0.0 | 0.00 | 0.00 | 0.00 | 43 | 1013.5 | |
| 20260508051012 | 17 | 0.0 | 0.0 | 0.00 | 0.00 | 0.00 | 43 | 1013.5 | |
| 20260508050513 | 17 | 0.0 | 0.0 | 0.00 | 0.00 | 0.00 | 42 | 1013.4 | |
| 20260508050012 | 17 | 0.0 | 0.0 | 0.00 | 0.00 | 0.00 | 42 | 1013.3 | |
| 20260508045513 | 17 | 0.0 | 0.0 | 0.00 | 0.00 | 0.00 | 44 | 1013.2 | |
| 20260508045012 | 18 | 0.0 | 0.0 | 0.00 | 0.00 | 0.00 | 45 | 1013.1 | |
| 20260508044513 | 18 | 0.0 | 0.0 | 0.00 | 0.00 | 0.00 | 47 | 1013.0 | |
| 20260508043512 | 18 | 0.0 | 0.0 | 0.00 | 0.00 | 0.00 | 49 | 1012.9 | |
| 20260508043012 | 18 | 0.0 | 0.0 | 0.00 | 0.00 | 0.00 | 50 | 1012.8 | |
| 20260508042012 | 19 | 0.0 | 0.0 | 0.00 | 0.00 | 0.00 | 52 | 1012.7 | |
| 20260508041012 | 20 | 0.0 | 0.0 | 0.00 | 0.00 | 0.00 | 53 | 1012.5 | |
| 20260508040513 | 20 | 0.0 | 0.0 | 0.00 | 0.00 | 0.00 | 52 | 1012.3 | |
| 20260508035512 | 21 | 0.0 | 0.0 | 0.00 | 0.00 | 0.00 | 50 | 1012.1 | |
| 20260508035012 | 22 | 0.0 | 0.0 | 0.00 | 0.00 | 0.00 | 48 | 1012.1 | |
| 20260508034512 | 22 | 0.0 | 0.0 | 0.00 | 0.00 | 0.00 | 47 | 1012.0 | |
| 20260508034012 | 22 | 0.0 | 0.0 | 0.00 | 0.00 | 0.00 | 45 | 1011.8 | |
| 20260508032012 | 24 | 0.0 | 0.0 | 0.00 | 0.00 | 0.00 | 30 | 1011.3 | |
| 20260508031512 | 24 | 0.0 | 0.0 | 0.00 | 0.00 | 0.00 | 30 | 1011.2 | |
| 20260508031012 | 25 | 0.0 | 0.0 | 0.00 | 0.00 | 0.00 | 30 | 1011.2 | |
| 20260508030513 | 25 | 0.0 | 0.0 | 0.00 | 0.00 | 0.00 | 30 | 1011.1 | |
| 20260508030012 | 25 | 0.0 | 0.0 | 0.00 | 0.00 | 0.00 | 30 | 1011.1 | |
| 20260508025512 | 25 | 0.0 | 0.0 | 0.00 | 0.00 | 0.00 | 31 | 1011.0 | |
| 20260508024012 | 26 | 0.0 | 0.0 | 0.00 | 0.00 | 0.00 | 29 | 1011.0 | |
| 20260508023512 | 26 | 0.0 | 0.0 | 0.00 | 0.00 | 0.00 | 29 | 1010.9 | |
| 20260508023013 | 26 | 0.0 | 0.0 | 0.00 | 0.00 | 0.00 | 29 | 1010.9 | |
| 20260508022012 | 26 | 0.0 | 0.0 | 0.00 | 0.00 | 0.00 | 28 | 1010.9 | |
| 20260508021011 | 27 | 0.0 | 0.0 | 0.00 | 0.00 | 0.00 | 27 | 1010.8 | |
| 20260508020512 | 27 | 0.0 | 0.0 | 0.00 | 0.00 | 0.00 | 28 | 1010.7 | |
| 20260508020012 | 27 | 0.0 | 0.0 | 0.00 | 0.00 | 0.00 | 28 | 1010.7 | |
| 20260508015012 | 27 | 0.0 | 0.0 | 0.00 | 0.00 | 0.00 | 27 | 1010.7 | |
| 20260508014512 | 28 | 0.0 | 0.0 | 0.00 | 0.00 | 0.00 | 28 | 1010.6 | |
| 20260508014012 | 28 | 0.0 | 0.0 | 0.00 | 0.00 | 0.00 | 27 | 1010.6 | |
| 20260508013512 | 28 | 0.0 | 0.0 | 0.00 | 0.00 | 0.00 | 27 | 1010.6 | |
| 20260508013011 | 28 | 0.0 | 0.0 | 0.00 | 0.00 | 0.00 | 27 | 1010.6 | |
| 20260508012011 | 28 | 0.0 | 0.0 | 0.00 | 0.00 | 0.00 | 27 | 1010.6 | |
| 20260508011511 | 29 | 0.0 | 0.0 | 0.00 | 0.00 | 0.00 | 27 | 1010.7 | |
| 20260508011011 | 29 | 0.0 | 0.0 | 0.00 | 0.00 | 0.00 | 28 | 1010.7 | |
| 20260508010511 | 29 | 0.0 | 0.0 | 0.00 | 0.00 | 0.00 | 28 | 1010.7 | |
| 20260508010012 | 29 | 0.0 | 0.0 | 0.00 | 0.00 | 0.00 | 29 | 1010.8 | |
| 20260508005512 | 29 | 0.0 | 0.0 | 0.00 | 0.00 | 0.00 | 28 | 1010.9 | |
| 20260508005012 | 29 | 0.0 | 0.0 | 0.00 | 0.00 | 0.00 | 28 | 1011.0 | |
| 20260508004511 | 29 | 0.0 | 0.0 | 0.00 | 0.00 | 0.00 | 27 | 1010.9 | |
| 20260508004011 | 29 | 0.0 | 0.0 | 0.00 | 0.00 | 0.00 | 29 | 1011.0 | |
| 20260508003512 | 29 | 0.0 | 0.0 | 0.00 | 0.00 | 0.00 | 29 | 1010.9 | |
| 20260508003012 | 29 | 0.0 | 0.0 | 0.00 | 0.00 | 0.00 | 29 | 1011.0 | |
| 20260508002512 | 29 | 0.0 | 0.0 | 0.00 | 0.00 | 0.00 | 28 | 1010.9 | |
| 20260508002012 | 29 | 0.0 | 0.0 | 0.00 | 0.00 | 0.00 | 27 | 1011.0 | |
| 20260508001512 | 29 | 0.0 | 0.0 | 0.00 | 0.00 | 0.00 | 28 | 1011.0 | |
| 20260508000512 | 30 | 0.0 | 0.0 | 0.00 | 0.00 | 0.00 | 28 | 1011.0 | |
| 20260508000012 | 30 | 0.0 | 0.0 | 0.00 | 0.00 | 0.00 | 28 | 1011.1 | |
| 20260507235512 | 30 | 0.0 | 0.0 | 0.00 | 0.00 | 0.00 | 28 | 1011.0 | |
| 20260507235012 | 30 | 0.0 | 0.0 | 0.00 | 0.00 | 0.00 | 30 | 1011.0 | |
| 20260507234512 | 30 | 0.0 | 0.0 | 0.00 | 0.00 | 0.00 | 30 | 1011.1 | |
| 20260507234012 | 29 | 0.0 | 0.0 | 0.00 | 0.00 | 0.00 | 30 | 1011.0 | |
| 20260507233511 | 29 | 0.0 | 0.0 | 0.00 | 0.00 | 0.00 | 28 | 1011.1 | |
| 20260507233012 | 29 | 0.0 | 0.0 | 0.00 | 0.00 | 0.00 | 29 | 1011.1 | |
| 20260507232511 | 29 | 0.0 | 0.0 | 0.00 | 0.00 | 0.00 | 29 | 1011.2 | |
| 20260507232012 | 28 | 0.0 | 0.0 | 0.00 | 0.00 | 0.00 | 31 | 1011.3 | |
| 20260507231511 | 29 | 0.0 | 0.0 | 0.00 | 0.00 | 0.00 | 28 | 1011.4 | |
| 20260507231012 | 29 | 0.0 | 0.0 | 0.00 | 0.00 | 0.00 | 28 | 1011.3 | |
| 20260507230512 | 29 | 0.0 | 0.0 | 0.00 | 0.00 | 0.00 | 30 | 1011.3 | |
| 20260507230013 | 29 | 0.0 | 0.0 | 0.00 | 0.00 | 0.00 | 26 | 1011.4 | |
| 20260507225512 | 29 | 0.0 | 0.0 | 0.00 | 0.00 | 0.00 | 26 | 1011.4 | |
| 20260507224512 | 30 | 0.0 | 0.0 | 0.00 | 0.00 | 0.00 | 24 | 1011.5 | |
| 20260507224012 | 30 | 0.0 | 0.0 | 0.00 | 0.00 | 0.00 | 27 | 1011.6 | |
| 20260507223512 | 30 | 0.0 | 0.0 | 0.00 | 0.00 | 0.00 | 23 | 1011.6 | |
| 20260507223013 | 29 | 0.0 | 0.0 | 0.00 | 0.00 | 0.00 | 24 | 1011.7 | |
| 20260507222511 | 29 | 0.0 | 0.0 | 0.00 | 0.00 | 0.00 | 23 | 1011.8 | |
| 20260507222012 | 28 | 0.0 | 0.0 | 0.00 | 0.00 | 0.00 | 22 | 1011.8 | |
| 20260507221512 | 28 | 0.0 | 0.0 | 0.00 | 0.00 | 0.00 | 21 | 1011.9 | |
| 20260507221012 | 28 | 0.0 | 0.0 | 0.00 | 0.00 | 0.00 | 21 | 1012.0 | |
| 20260507220511 | 28 | 0.0 | 0.0 | 0.00 | 0.00 | 0.00 | 20 | 1012.0 | |
| 20260507220011 | 28 | 0.0 | 0.0 | 0.00 | 0.00 | 0.00 | 21 | 1012.1 | |
| 20260507215511 | 28 | 0.0 | 0.0 | 0.00 | 0.00 | 0.00 | 21 | 1012.2 | |
| 20260507214511 | 28 | 0.0 | 0.0 | 0.00 | 0.00 | 0.00 | 22 | 1012.3 | |
| 20260507214012 | 28 | 0.0 | 0.0 | 0.00 | 0.00 | 0.00 | 23 | 1012.4 | |
| 20260507213511 | 28 | 0.0 | 0.0 | 0.00 | 0.00 | 0.00 | 22 | 1012.5 | |
| 20260507213011 | 28 | 0.0 | 0.0 | 0.00 | 0.00 | 0.00 | 25 | 1012.6 | |
| 20260507212511 | 28 | 0.0 | 0.0 | 0.00 | 0.00 | 0.00 | 24 | 1012.5 | |
| 20260507212011 | 28 | 0.0 | 0.0 | 0.00 | 0.00 | 0.00 | 31 | 1012.6 | |
| 20260507211012 | 27 | 0.0 | 0.0 | 0.00 | 0.00 | 0.00 | 32 | 1012.6 | |
| 20260507210512 | 27 | 0.0 | 0.0 | 0.00 | 0.00 | 0.00 | 31 | 1012.8 | |
| 20260507205512 | 26 | 0.0 | 0.0 | 0.00 | 0.00 | 0.00 | 35 | 1012.8 | |
| 20260507204513 | 26 | 0.0 | 0.0 | 0.00 | 0.00 | 0.00 | 30 | 1012.9 | |
| 20260507204011 | 26 | 0.0 | 0.0 | 0.00 | 0.00 | 0.00 | 33 | 1013.0 | |
| 20260507203511 | 26 | 0.0 | 0.0 | 0.00 | 0.00 | 0.00 | 33 | 1013.1 | |
| 20260507202511 | 26 | 0.0 | 0.0 | 0.00 | 0.00 | 0.00 | 36 | 1013.2 | |
| 20260507201512 | 26 | 0.0 | 0.0 | 0.00 | 0.00 | 0.00 | 40 | 1013.3 | |
| 20260507201012 | 26 | 0.0 | 0.0 | 0.00 | 0.00 | 0.00 | 40 | 1013.4 | |
| 20260507200512 | 26 | 0.0 | 0.0 | 0.00 | 0.00 | 0.00 | 41 | 1013.5 | |
| 20260507195511 | 25 | 0.0 | 0.0 | 0.00 | 0.00 | 0.00 | 43 | 1013.6 | |
| 20260507195011 | 25 | 0.0 | 0.0 | 0.00 | 0.00 | 0.00 | 45 | 1013.7 | |
| 20260507194511 | 25 | 0.0 | 0.0 | 0.00 | 0.00 | 0.00 | 44 | 1013.8 | |
| 20260507194012 | 25 | 0.0 | 0.0 | 0.00 | 0.00 | 0.00 | 47 | 1013.9 | |
| 20260507193512 | 25 | 0.0 | 0.0 | 0.00 | 0.00 | 0.00 | 43 | 1014.0 | |
| 20260507193011 | 25 | 0.0 | 0.0 | 0.00 | 0.00 | 0.00 | 45 | 1014.1 | |
| 20260507192511 | 24 | 0.0 | 0.0 | 0.00 | 0.00 | 0.00 | 50 | 1014.2 | |
| 20260507191511 | 23 | 0.0 | 0.0 | 0.00 | 0.00 | 0.00 | 50 | 1014.4 | |
| 20260507191011 | 23 | 0.0 | 0.0 | 0.00 | 0.00 | 0.00 | 49 | 1014.5 | |
| 20260507190511 | 23 | 0.0 | 0.0 | 0.00 | 0.00 | 0.00 | 52 | 1014.6 | |
| 20260507190011 | 23 | 0.0 | 0.0 | 0.00 | 0.00 | 0.00 | 51 | 1014.6 | |
| 20260507185511 | 22 | 0.0 | 0.0 | 0.00 | 0.00 | 0.00 | 52 | 1014.8 | |
| 20260507185011 | 22 | 0.0 | 0.0 | 0.00 | 0.00 | 0.00 | 51 | 1014.8 | |
| 20260507184511 | 22 | 0.0 | 0.0 | 0.00 | 0.00 | 0.00 | 49 | 1014.8 | |
| 20260507184011 | 21 | 0.0 | 0.0 | 0.00 | 0.00 | 0.00 | 49 | 1015.0 | |
| 20260507183511 | 21 | 0.0 | 0.0 | 0.00 | 0.00 | 0.00 | 48 | 1015.0 | |
| 20260507183011 | 21 | 0.0 | 0.0 | 0.00 | 0.00 | 0.00 | 51 | 1015.0 | |
| 20260507182511 | 21 | 0.0 | 0.0 | 0.00 | 0.00 | 0.00 | 50 | 1015.1 | |
| 20260507182011 | 21 | 0.0 | 0.0 | 0.00 | 0.00 | 0.00 | 51 | 1015.2 | |
| 20260507181511 | 20 | 0.0 | 0.0 | 0.00 | 0.00 | 0.00 | 52 | 1015.2 | |
| 20260507181012 | 20 | 0.0 | 0.0 | 0.00 | 0.00 | 0.00 | 47 | 1015.3 | |
| 20260507180511 | 20 | 0.0 | 0.0 | 0.00 | 0.00 | 0.00 | 42 | 1015.4 | |
| 20260507175511 | 19 | 0.0 | 0.0 | 0.00 | 0.00 | 0.00 | 44 | 1015.5 | |
| 20260507175011 | 19 | 0.0 | 0.0 | 0.00 | 0.00 | 0.00 | 42 | 1015.5 | |
| 20260507174511 | 19 | 0.0 | 0.0 | 0.00 | 0.00 | 0.00 | 33 | 1015.6 | |
| 20260507174011 | 18 | 0.0 | 0.0 | 0.00 | 0.00 | 0.00 | 30 | 1015.7 | |
| 20260507173511 | 18 | 0.0 | 0.0 | 0.00 | 0.00 | 0.00 | 28 | 1015.7 | |
| 20260507173011 | 18 | 0.0 | 0.0 | 0.00 | 0.00 | 0.00 | 14 | 1015.8 | |
| 20260507172512 | 17 | 0.0 | 0.0 | 0.00 | 0.00 | 0.00 | 19 | 1015.8 | |
| 20260507171512 | 17 | 0.0 | 0.0 | 0.00 | 0.00 | 0.00 | 8 | 1015.9 | |
| 20260507171011 | 16 | 0.0 | 0.0 | 0.00 | 0.00 | 0.00 | 1 | 1016.0 | |
| 20260507170511 | 16 | 0.0 | 0.0 | 0.00 | 0.00 | 0.00 | 1 | 1015.9 | |
| 20260507170012 | 16 | 0.0 | 0.0 | 0.00 | 0.00 | 0.00 | 1 | 1016.0 | |
| 20260507165511 | 15 | 0.0 | 0.0 | 0.00 | 0.00 | 0.00 | 1 | 1016.2 | |
| 20260507165010 | 15 | 0.0 | 0.0 | 0.00 | 0.00 | 0.00 | 1 | 1016.2 | |
| 20260507164511 | 15 | 0.0 | 0.0 | 0.00 | 0.00 | 0.00 | 1 | 1016.2 | |
| 20260507163512 | 14 | 0.0 | 0.0 | 0.00 | 0.00 | 0.00 | 1 | 1016.3 | |
| 20260507163011 | 14 | 0.0 | 0.0 | 0.00 | 0.00 | 0.00 | 1 | 1016.4 | |
| 20260507162512 | 13 | 0.0 | 0.0 | 0.00 | 0.00 | 0.00 | 1 | 1016.5 | |
| 20260507162011 | 13 | 0.0 | 0.0 | 0.00 | 0.00 | 0.00 | 1 | 1016.5 | |
| 20260507161011 | 12 | 0.0 | 0.0 | 0.00 | 0.00 | 0.00 | 1 | 1016.6 | |
| 20260507160511 | 12 | 0.0 | 0.0 | 0.00 | 0.00 | 0.00 | 1 | 1016.5 | |
| 20260507160011 | 12 | 0.0 | 0.0 | 0.00 | 0.00 | 0.00 | 1 | 1016.7 | |
| 20260507154512 | 11 | 0.0 | 0.0 | 0.00 | 0.00 | 0.00 | 1 | 1016.7 | |
| 20260507154012 | 11 | 0.0 | 0.0 | 0.00 | 0.00 | 0.00 | 1 | 1016.8 | |
| 20260507153511 | 10 | 0.0 | 0.0 | 0.00 | 0.00 | 0.00 | 1 | 1016.8 | |
| 20260507153012 | 10 | 0.0 | 0.0 | 0.00 | 0.00 | 0.00 | 1 | 1016.9 | |
| 20260507152511 | 10 | 0.0 | 0.0 | 0.00 | 0.00 | 0.00 | 1 | 1016.9 | |
| 20260507152011 | 10 | 0.0 | 0.0 | 0.00 | 0.00 | 0.00 | 1 | 1017.0 | |
| 20260507151511 | 10 | 0.0 | 0.0 | 0.00 | 0.00 | 0.00 | 1 | 1017.0 | |
| 20260507151011 | 10 | 0.0 | 0.0 | 0.00 | 0.00 | 0.00 | 1 | 1017.0 | |
| 20260507150511 | 9 | 0.0 | 0.0 | 0.00 | 0.00 | 0.00 | 1 | 1017.0 | |
| 20260507150011 | 9 | 0.0 | 0.0 | 0.00 | 0.00 | 0.00 | 1 | 1017.0 | |
| 20260507145512 | 8 | 0.0 | 0.0 | 0.00 | 0.00 | 0.00 | 1 | 1017.1 | |
| 20260507145011 | 8 | 0.0 | 0.0 | 0.00 | 0.00 | 0.00 | 1 | 1017.2 | |
| 20260507144511 | 8 | 0.0 | 0.0 | 0.00 | 0.00 | 0.00 | 1 | 1017.1 | |
| 20260507143511 | 8 | 0.0 | 0.0 | 0.00 | 0.00 | 0.00 | 1 | 1017.2 | |
| 20260507143011 | 8 | 0.0 | 0.0 | 0.00 | 0.00 | 0.00 | 1 | 1017.1 | |
| 20260507142512 | 8 | 0.0 | 0.0 | 0.00 | 0.00 | 0.00 | 1 | 1017.1 | |
| 20260507141511 | 8 | 0.0 | 0.0 | 0.00 | 0.00 | 0.00 | 1 | 1017.0 | |
| 20260507141011 | 8 | 0.0 | 0.0 | 0.00 | 0.00 | 0.00 | 1 | 1017.0 | |
| 20260507140511 | 7 | 0.0 | 0.0 | 0.00 | 0.00 | 0.00 | 1 | 1017.0 | |
| 20260507140011 | 7 | 0.0 | 0.0 | 0.00 | 0.00 | 0.00 | 1 | 1016.9 | |
| 20260507135511 | 7 | 0.0 | 0.0 | 0.00 | 0.00 | 0.00 | 1 | 1016.9 | |
| 20260507135011 | 7 | 0.0 | 0.0 | 0.00 | 0.00 | 0.00 | 1 | 1016.8 | |
| 20260507134511 | 7 | 0.0 | 0.0 | 0.00 | 0.00 | 0.00 | 1 | 1016.8 | |
| 20260507134011 | 7 | 0.0 | 0.0 | 0.00 | 0.00 | 0.00 | 1 | 1016.8 | |
| 20260507133511 | 7 | 0.0 | 0.0 | 0.00 | 0.00 | 0.00 | 1 | 1016.7 | |
| 20260507133010 | 7 | 0.0 | 0.0 | 0.00 | 0.00 | 0.00 | 1 | 1016.7 | |
| 20260507132511 | 7 | 0.0 | 0.0 | 0.00 | 0.00 | 0.00 | 1 | 1016.7 | |
| 20260507132011 | 7 | 0.0 | 0.0 | 0.00 | 0.00 | 0.00 | 1 | 1016.7 | |
| 20260507131511 | 7 | 0.0 | 0.0 | 0.00 | 0.00 | 0.00 | 1 | 1016.7 | |
| 20260507131011 | 7 | 0.0 | 0.0 | 0.00 | 0.00 | 0.00 | 1 | 1016.6 | |
| 20260507130512 | 7 | 0.0 | 0.0 | 0.00 | 0.00 | 0.00 | 1 | 1016.6 | |
| 20260507130011 | 7 | 0.0 | 0.0 | 0.00 | 0.00 | 0.00 | 1 | 1016.6 | |
| 20260507125511 | 7 | 0.0 | 0.0 | 0.00 | 0.00 | 0.00 | 1 | 1016.6 | |
| 20260507125011 | 8 | 0.0 | 0.0 | 0.00 | 0.00 | 0.00 | 1 | 1016.6 | |
| 20260507124011 | 8 | 0.0 | 0.0 | 0.00 | 0.00 | 0.00 | 1 | 1016.5 | |
| 20260507123511 | 8 | 0.0 | 0.0 | 0.00 | 0.00 | 0.00 | 1 | 1016.5 | |
| 20260507123011 | 8 | 0.0 | 0.0 | 0.00 | 0.00 | 0.00 | 1 | 1016.4 | |
| 20260507122510 | 8 | 0.0 | 0.0 | 0.00 | 0.00 | 0.00 | 1 | 1016.4 | |
| 20260507122011 | 8 | 0.0 | 0.0 | 0.00 | 0.00 | 0.00 | 1 | 1016.4 | |
| 20260507121510 | 8 | 0.0 | 0.0 | 0.00 | 0.00 | 0.00 | 1 | 1016.4 | |
| 20260507121012 | 8 | 0.0 | 0.0 | 0.00 | 0.00 | 0.00 | 1 | 1016.4 | |
| 20260507120011 | 8 | 0.0 | 0.0 | 0.00 | 0.00 | 0.00 | 1 | 1016.4 | |
| 20260507115511 | 8 | 0.0 | 0.0 | 0.00 | 0.00 | 0.00 | 1 | 1016.5 | |
| 20260507115011 | 8 | 0.0 | 0.0 | 0.00 | 0.00 | 0.00 | 1 | 1016.5 | |
| 20260507114510 | 8 | 0.0 | 0.0 | 0.00 | 0.00 | 0.00 | 1 | 1016.5 | |
| 20260507114010 | 8 | 0.0 | 0.0 | 0.00 | 0.00 | 0.00 | 1 | 1016.5 | |
| 20260507113510 | 8 | 0.0 | 0.0 | 0.00 | 0.00 | 0.00 | 1 | 1016.6 | |
| 20260507113010 | 8 | 0.0 | 0.0 | 0.00 | 0.00 | 0.00 | 1 | 1016.6 | |
| 20260507112510 | 8 | 0.0 | 0.0 | 0.00 | 0.00 | 0.00 | 1 | 1016.7 | |
| 20260507112010 | 8 | 0.0 | 0.0 | 0.00 | 0.00 | 0.00 | 1 | 1016.6 | |
| 20260507110511 | 8 | 0.0 | 0.0 | 0.00 | 0.00 | 0.00 | 1 | 1016.7 | |
| 20260507110011 | 8 | 0.0 | 0.0 | 0.00 | 0.00 | 0.00 | 1 | 1016.7 | |
| 20260507105511 | 9 | 0.0 | 0.0 | 0.00 | 0.00 | 0.00 | 1 | 1016.7 | |
| 20260507104011 | 9 | 0.0 | 0.0 | 0.00 | 0.00 | 0.00 | 1 | 1016.6 | |
| 20260507103511 | 9 | 0.0 | 0.0 | 0.00 | 0.00 | 0.00 | 1 | 1016.6 | |
| 20260507103011 | 9 | 0.0 | 0.0 | 0.00 | 0.00 | 0.00 | 1 | 1016.6 | |
| 20260507102511 | 9 | 0.0 | 0.0 | 0.00 | 0.00 | 0.00 | 1 | 1016.6 | |
| 20260507102010 | 9 | 0.0 | 0.0 | 0.00 | 0.00 | 0.00 | 1 | 1016.6 | |
| 20260507101511 | 9 | 0.0 | 0.0 | 0.00 | 0.00 | 0.00 | 1 | 1016.6 | |
| 20260507101010 | 10 | 0.0 | 0.0 | 0.00 | 0.00 | 0.00 | 1 | 1016.6 | |
| 20260507100511 | 10 | 0.0 | 0.0 | 0.00 | 0.00 | 0.00 | 1 | 1016.6 | |
| 20260507100010 | 10 | 0.0 | 0.0 | 0.00 | 0.00 | 0.00 | 1 | 1016.6 | |
| 20260507095510 | 10 | 0.0 | 0.0 | 0.00 | 0.00 | 0.00 | 1 | 1016.7 | |
| 20260507095010 | 10 | 0.0 | 0.0 | 0.00 | 0.00 | 0.00 | 1 | 1016.6 | |
| 20260507094511 | 10 | 0.0 | 0.0 | 0.00 | 0.00 | 0.00 | 1 | 1016.6 | |
| 20260507094010 | 10 | 0.0 | 0.0 | 0.00 | 0.00 | 0.00 | 1 | 1016.7 | |
| 20260507093510 | 10 | 0.0 | 0.0 | 0.00 | 0.00 | 0.00 | 1 | 1016.6 | |
| 20260507093011 | 10 | 0.0 | 0.0 | 0.00 | 0.00 | 0.00 | 1 | 1016.6 | |
| 20260507092511 | 10 | 0.0 | 0.0 | 0.00 | 0.00 | 0.00 | 1 | 1016.6 | |
| 20260507090512 | 10 | 0.0 | 0.0 | 0.00 | 0.00 | 0.00 | 1 | 1016.7 | |
| 20260507090011 | 11 | 0.0 | 0.0 | 0.00 | 0.00 | 0.00 | 1 | 1016.6 |